This demonstration page uses our WeatherBlox Daily Observations layout. Learn more.

36.17497, -115.13722

Hourly Observations for June 4, 2016

Temp ( °F °C ) Dew Point ( °F °C ) Humidity (%) Winds ( mph kmh ) Pressure ( in mb ) Visibility ( mi km ) Precip ( " mm )
12:53 am 00:53 Clear 86 30 34 1.1 15 15 SW 6 9 29.88 1012 10 16.0934 0 0
1:53 am 01:53 Clear 85 29.4 30 -1.1 14 14 NW 6 9 29.87 1012 10 16.0934 0 0
2:53 am 02:53 Clear 82 27.8 35 1.7 18 18 Calm 29.89 1012 10 16.0934 0 0
3:53 am 03:53 Clear 82 28 28 -2 14 14 Calm 29.8 1009 10 16.0934 0 0
4:53 am 04:53 Clear 82 27.8 30 -1.1 15 15 WNW 5 7 29.9 1013 10 16.0934 0 0
5:53 am 05:53 Sunny 80 26.7 30 -1.1 16 16 W 6 9 29.92 1013 10 16.0934 0 0
6:53 am 06:53 Sunny 82 27.8 30 -1.1 15 15 Calm 29.93 1014 10 16.0934 0 0
7:53 am 07:53 Sunny 88 31.1 32 0 13 13 WSW 6 9 29.95 1014 10 16.0934 0 0
8:53 am 08:53 Sunny 92 33.3 29 -1.7 10 10 Calm 29.96 1015 10 16.0934 0 0
9:53 am 09:53 Sunny 96 35.6 30 -1.1 10 10 SSE 3 6 29.96 1015 10 16.0934 0 0
10:53 am 10:53 Sunny 99 37.2 30 -1.1 9 9 VRB 5 7 29.94 1014 10 16.0934 0 0
11:53 am 11:53 Sunny 100 37.8 30 -1.1 8 8 Calm 29.92 1013 10 16.0934 0 0
12:53 pm 12:53 Sunny 104 40 27 -2.8 7 7 undefined N/A 29.9 1013 10 16.0934 0 0
1:53 pm 13:53 Sunny 106 41.1 28 -2.2 6 6 VRB 7 11 29.87 1012 10 16.0934 0 0
2:53 pm 14:53 Sunny 106 41.1 25 -3.9 6 6 SSE 10 17 29.85 1011 10 16.0934 0 0
3:53 pm 15:53 Sunny 106 41.1 25 -3.9 6 6 VRB 7 11 29.82 1010 10 16.0934 0 0
4:53 pm 16:53 Sunny 106 41.1 25 -3.9 6 6 SSW 6 9 29.8 1009 10 16.0934 0 0
5:53 pm 17:53 Sunny 106 41.1 24 -4.4 5 5 Calm 29.78 1009 10 16.0934 0 0
6:53 pm 18:53 Sunny 105 40.6 24 -4.4 6 6 ESE 6 9 29.77 1008 10 16.0934 0 0
7:53 pm 19:53 Sunny 102 38.9 24 -4.4 6 6 E 7 11 29.77 1008 10 16.0934 0 0
8:53 pm 20:53 Clear 100 37.8 23 -5 6 6 Calm 29.77 1008 10 16.0934 0 0
9:53 pm 21:53 Clear 97 36.1 28 -2.2 9 9 W 8 13 29.78 1008 10 16.0934 0 0
10:53 pm 22:53 Clear 92 33.3 32 0 12 12 NNW 5 7 29.78 1008 10 16.0934 0 0
11:53 pm 23:53 Clear 90 32.2 30 -1.1 12 12 NNW 3 6 29.77 1008 10 16.0934 0 0

Powered by AerisWeather